Regional Weather Roundup
Issued by NWS

Home | Current Version | Previous Version | Graphics & Text | Print | Product List | Glossary On
Versions: 1 2 3 4 5 6 7 8 9 10 11 12 13 14 15 16 17 18 19 20 21 22 23 24 25 26 27 28 29 30 31 32 33 34 35 36 37 38 39 40 41 42 43 44 45 46 47 48 49 50
000
ASUS43 KIND 291359
RWRIN

WEATHER ROUNDUP FOR INDIANA
NATIONAL WEATHER SERVICE INDIANAPOLIS IN
1000 AM EDT WED JUL 29 2015

NOTE: "FAIR" INDICATES FEW OR NO CLOUDS BELOW 12,000 FEET WITH NO
SIGNIFICANT WEATHER AND/OR OBSTRUCTIONS TO VISIBILITY.

* - STATION DOES NOT REPORT WEATHER SUCH AS PRECIPITATION OR FOG.

+ - STATION NOT QUALITY CONTROLLED BY THE NATIONAL WEATHER SERVICE.
    USE DATA WITH CAUTION...ESPECIALLY DEWPOINT AND RELATIVE
    HUMIDITY OBSERVATIONS.

INZ001>003-010>013-019-020-291500-
NORTHWEST INDIANA

CITY           SKY/WX    TMP DP  RH WIND       PRES   REMARKS
GARY /AIRPORT/ PTSUNNY   79  75  89 W8        29.96S
KNOX *+        PTSUNNY   79  72  78 SW3       29.95F
MONTICELLO +   CLOUDY    77  75  93 SW5       29.97R
RENSSELAER +   CLOUDY    77  73  88 SW6       29.97S

$$

LMZ046-743>745-291500-
SOUTHERN LAKE MICHIGAN

STATION/POSITION TIME  TEMP    WIND        PRES    WAVE
                       AIR SEA DIR/SP/G            HT
                 (UTC) (F)     (DEG/KT/KT) (MB)    (FT)
BURNS HARBOR     1300   76     230/  7/ 10 1014.9R
MICHIGAN CITY    1300   74     230/  8/  8   N/A
5NW MICH CITY    1300   75 74  260/  8/ 10   N/A     1

$$

INZ004-005-014>016-021>024-291500-
NORTH CENTRAL INDIANA

CITY           SKY/WX    TMP DP  RH WIND       PRES   REMARKS
ELKHART        SUNNY     81  72  74 W7        29.96F
GOSHEN         PTSUNNY   81  73  76 W5        29.95F
SOUTH BEND     CLOUDY    81  73  76 W8        29.96S
WARSAW +       PTSUNNY   81  72  74 W3        29.96F

$$

INZ006>009-017-018-025>027-291500-
NORTHEAST INDIANA

CITY           SKY/WX    TMP DP  RH WIND       PRES   REMARKS
ANGOLA *+      MOSUNNY   82  75  78 SW3       29.96F
FORT WAYNE     PTSUNNY   83  75  77 W7        29.98S

$$

INZ028-029-035-036-043>045-051>053-291500-
WEST CENTRAL INDIANA

CITY           SKY/WX    TMP DP  RH WIND       PRES   REMARKS
CRAWFORDSVL +  CLOUDY    75  71  86 CALM        N/A
GREENCASTLE +  CLOUDY    79  70  73 CALM      30.01S
LAFAYETTE      CLOUDY    77  72  84 CALM      29.97S
TERRE HAUTE    PTSUNNY   79  74  84 SE3       29.99S

$$

INZ030>032-037>040-046>048-054>057-064-065-291500-
CENTRAL INDIANA

CITY           SKY/WX    TMP DP  RH WIND       PRES   REMARKS
ANDERSON       MOSUNNY   81  73  78 W6        30.01R
COLUMBUS       MOSUNNY   81  73  78 W5        30.00R
GREENWOOD *+   PTSUNNY   82  70  65 W3        30.00F
INDIANAPOLIS   PTSUNNY   83  70  64 W7        29.99R
-EAGLE CREEK   PTSUNNY   82  72  71 W6        29.99S
KOKOMO *+      PTSUNNY   81  73  78 CALM      29.97F
MT COMFORT *+  MOSUNNY   82 N/A N/A CALM      30.00S
SHELBYVILLE    MOSUNNY   82  76  81 SW5       29.99R

$$

INZ033-034-041-042-049-050-058-059-291500-
EAST CENTRAL INDIANA

CITY           SKY/WX    TMP DP  RH WIND       PRES   REMARKS
MUNCIE         MOSUNNY   82  74  76 W10       30.00R

$$

INZ060-061-067>069-081>083-085>088-291500-
SOUTHWEST INDIANA

CITY           SKY/WX    TMP DP  RH WIND       PRES   REMARKS
EVANSVILLE     CLOUDY    77  74  90 SW5       30.01S
HUNTINGBURG *+ MOSUNNY   82  73  74 NW5       30.00F

$$

INZ062-063-066-070>080-084-089>092-291500-
SOUTH CENTRAL AND SOUTHEAST INDIANA

CITY           SKY/WX    TMP DP  RH WIND       PRES   REMARKS
BLOOMINGTON    PTSUNNY   82  75  79 CALM      30.01R
MADISON *+     SUNNY     81  75  83 CALM      30.03S
SEYMOUR +      SUNNY     84  75  74 W5        30.00R

$$




USA.gov is the U.S. government's official web portal to all federal, state and local government web resources and services.